Showing default

QIANFAN-56, 62786

Orbit data source: Space-Track

QIANFAN-56, 62786 is a Chinese payload satellite in LEO that was launched on Thu, 23 Jan 2025 UTC via a CHANG ZHENG 6A launch vehicle from the Taiyaun Space Center, China (TSC). Payload-class satellites include a variety of spacecraft equipped with specific instruments for various scientific and technological missions. These include communications satellites like Starlink; space stations such as the ISS; scientific satellites like the Hubble; Earth observation satellites from companies like Planet Labs, Umbra, and HawkEye 360; GPS; miniature CubeSats for education and research; and military/defense satellites.

Loading next visibility...
Identifier
62786, 2025-016B
Orbit
LEO
Country
Flag of CNCN / PRC
Related business
Manufacturer
SECM
Mission
Operational Commercial Communications
Bus & Motor
QIANFAN, Unknown motor
Mass
267 kg wet, ~267 kg dry
Launch date (UTC)
2025-01-23 (1 year ago)
Launch vehicle
CHANG ZHENG 6A
Launch site
Taiyaun Space Center, China (TSC)
Object type
Payload
Rocket body
Debris
Shape & HBR
Box + 1 Pan, 1.1 m
Radar Cross Section
13.200 m², Large (>1 m²)

Expand to show TLE details & history
Last TLE update: 11 hours ago

TLE from 11 hours ago
0 QIANFAN-56
1 62786U 25016B   26126.51234362  .00000083  00000-0  10961-3 0  9997
2 62786  88.9689  87.9932 0014024 297.5616  62.4111 13.51011315 66787
Epoch: 2026-05-06T12:17Z
TLE epoch observation values (Epoch: 2026-05-06T12:17:46.488Z)
Latitude
0.00006°
Longitude
39.17773°
Altitude
1,066.667 km
Speed
7.321 km/s
True Right ascension
05h 51m 58s
True Declination
0° 00' 00"
Sunlit
Object was in daylight at epoch
Visualization orbit readout
Latitude
Unknown
Longitude
Unknown
Altitude
Unknown
Speed
Unknown
Apparent Right ascension
Unknown
Apparent Declination
Unknown
Sunlit
N/A
Visualization observer readout
Local Sidereal Time
07:19:08
Azimuth
Unknown
Elevation
Unknown
Doppler factor
Unknown
Orbital elements
Apogee altitude
1,076.03 km
Perigee altitude
1,055.152 km
Semi-major axis
7,443.728 km
Eccentricity
0.0014
Inclination
88.9689°
RAAN
87.9932°
Arg. of periapsis
297.5616°
True anomaly
62.55365°
Mean anomaly
62.4111°
Eccentric anomaly
62.48236°
Mean motion
3.37954 °/min
Orbital period
106.52 mins
BSTAR
0.00010961
Loading maneuver chart data...
Computing Atmospheric mass density...
Loading historical data...
Loading historical data...
Loading historical data...
Loading historical data...
Loading historical data...
Loading historical data...
Loading historical data...

Documentation

Showing up to 5 results
|